Weather History for KTCM - February, 2012

Change the Weather History Date:

Monday, February 13, 2012

  Actual Average Record
Temperature  
Mean Temperature 41 °F -  
Max Temperature 45 °F 47 °F 62 °F (2015)
Min Temperature 37 °F 30 °F 19 °F (1995)
Degree Days  
Heating Degree Days 24    
Moisture  
Dew Point 41 °F    
Average Humidity 97    
Maximum Humidity 100    
Minimum Humidity 83    
Precipitation  
Precipitation 0.13 in - - ()
Sea Level Pressure  
Sea Level Pressure 30.04 in    
Wind  
Wind Speed 1 mph (South)    
Max Wind Speed 7 mph    
Max Gust Speed -    
Visibility 9 miles    
Events Rain    
Averages and records for this station are not official NWS values.
T = Trace of Precipitation, MM = Missing Value Source: NWS Daily Summary

Daily Weather History Graph

Daily Weather History Graph

Search for Another Location

Airport or City:

Trip Planner

Search our weather history database for the weather conditions in past years. The results will help you decide how hot, cold, wet, or windy it might be!

Date:

Astronomy

Feb. 13, 2012 Rise Set
Actual Time 7:18 AM PST 5:30 PM PST
Civil Twilight 6:46 AM PST 6:02 PM PST
Nautical Twilight 6:11 AM PST 6:37 PM PST
Astronomical Twilight 5:35 AM PST 7:13 PM PST
Moon 12:03 AM PST (2/13) 9:49 AM PST (2/13)
Length of Visible Light 11h 15m
Length of Day
10h 11m
Waning Gibbous, 60% of the Moon is Illuminated
Feb 13
Waning Gibbous
Feb 14
Last Quarter
Feb 21
New
Feb 29
First Quarter
Mar 8
Full

Hourly Weather History & Observations

Time (PST) Temp. Windchill Dew Point Humidity Pressure Visibility Wind Dir Wind Speed Gust Speed Precip Events Conditions
12:55 AM 40.1 °F - 39.9 °F 99% 29.95 in 9.0 mi Calm Calm - 0.01 in Rain Light Rain
1:37 AM 41.0 °F - 39.2 °F 93% 29.96 in 9.0 mi Calm Calm - N/A Rain Light Rain
1:45 AM 39.2 °F - 39.2 °F 100% 29.96 in 9.0 mi Calm Calm - N/A Rain Light Rain
1:55 AM 39.9 °F 37.8 °F 39.7 °F 99% 29.96 in 9.0 mi South 3.5 mph - 0.02 in Rain Light Rain
2:55 AM 40.1 °F - 39.9 °F 99% 29.97 in 10.0 mi Calm Calm - 0.02 in Rain Light Rain
3:23 AM 39.2 °F - 39.2 °F 100% 29.97 in 10.0 mi Calm Calm - N/A Rain Light Rain
3:38 AM 39.2 °F - 39.2 °F 100% 29.98 in 10.0 mi Calm Calm - N/A Rain Light Rain
3:44 AM 39.2 °F - 39.2 °F 100% 29.98 in 10.0 mi Calm Calm - N/A Rain Light Rain
3:45 AM 39.2 °F - 39.2 °F 100% 29.98 in 10.0 mi Calm Calm - N/A Rain Light Rain
3:54 AM 39.2 °F - 39.2 °F 100% 29.98 in 10.0 mi Calm Calm - N/A Rain Light Rain
3:55 AM 39.7 °F - 39.6 °F 99% 29.98 in 10.0 mi Calm Calm - 0.00 in Rain Light Rain
4:20 AM 39.2 °F - 39.2 °F 100% 29.99 in 10.0 mi Calm Calm - N/A Rain Light Rain
4:32 AM 39.2 °F 37.0 °F 39.2 °F 100% 29.99 in 10.0 mi South 3.5 mph - N/A Rain Light Rain
4:33 AM 39.2 °F 37.0 °F 39.2 °F 100% 29.99 in 10.0 mi South 3.5 mph - N/A Rain Light Rain
4:55 AM 39.7 °F - 39.6 °F 99% 29.99 in 10.0 mi Calm Calm - 0.02 in Rain Light Rain
5:10 AM 39.2 °F - 39.2 °F 100% 29.99 in 10.0 mi Calm Calm - N/A Rain Light Rain
5:18 AM 39.2 °F - 39.2 °F 100% 29.99 in 10.0 mi Calm Calm - N/A Rain Light Rain
5:55 AM 39.7 °F 37.6 °F 39.6 °F 99% 29.99 in 10.0 mi SSE 3.5 mph - 0.02 in Rain Light Rain
6:29 AM 39.2 °F - 39.2 °F 100% 29.99 in 10.0 mi Calm Calm - N/A Rain Light Rain
6:45 AM 39.2 °F - 39.2 °F 100% 30.00 in 10.0 mi Calm Calm - N/A Rain Light Rain
6:55 AM 39.9 °F - 39.7 °F 99% 30.00 in 10.0 mi Calm Calm - 0.01 in Rain Light Rain
7:06 AM 39.2 °F - 39.2 °F 100% 30.00 in 10.0 mi Calm Calm - N/A   Overcast
7:55 AM 40.3 °F 38.2 °F 40.1 °F 99% 30.01 in 10.0 mi South 3.5 mph - 0.00 in   Overcast
8:22 AM 41.0 °F - 41.0 °F 100% 30.02 in 9.0 mi Calm Calm - N/A Rain Light Rain
8:40 AM 41.0 °F 39.0 °F 41.0 °F 100% 30.03 in 9.0 mi South 3.5 mph - N/A   Overcast
8:50 AM 41.0 °F 39.0 °F 41.0 °F 100% 30.03 in 10.0 mi South 3.5 mph - N/A   Overcast
8:55 AM 40.6 °F - 40.5 °F 99% 30.03 in 8.0 mi Calm Calm - 0.00 in   Overcast
9:00 AM 41.0 °F - 41.0 °F 100% 30.04 in 6.0 mi Calm Calm - N/A   Light Drizzle
9:24 AM 41.0 °F - 41.0 °F 100% 30.04 in 7.0 mi Calm Calm - N/A   Overcast
9:26 AM 41.0 °F - 41.0 °F 100% 30.04 in 7.0 mi Calm Calm - N/A Rain Light Rain
9:36 AM 41.0 °F 38.0 °F 41.0 °F 100% 30.04 in 7.0 mi SSE 4.6 mph - N/A   Overcast
9:55 AM 41.2 °F - 41.0 °F 99% 30.04 in 10.0 mi Calm Calm - 0.01 in   Overcast
10:35 AM 41.0 °F 39.0 °F 41.0 °F 100% 30.05 in 10.0 mi South 3.5 mph - N/A   Overcast
10:37 AM 41.0 °F 39.0 °F 41.0 °F 100% 30.05 in 10.0 mi South 3.5 mph - N/A   Overcast
10:41 AM 41.0 °F 39.0 °F 41.0 °F 100% 30.05 in 9.0 mi South 3.5 mph - N/A   Overcast
10:43 AM 41.0 °F 39.0 °F 41.0 °F 100% 30.05 in 9.0 mi South 3.5 mph - N/A   Overcast
10:51 AM 41.0 °F 39.0 °F 41.0 °F 100% 30.06 in 10.0 mi SSW 3.5 mph - N/A   Overcast
10:55 AM 41.5 °F 39.6 °F 41.4 °F 99% 30.06 in 10.0 mi South 3.5 mph - N/A   Overcast
11:02 AM 41.0 °F 39.0 °F 41.0 °F 100% 30.06 in 6.0 mi South 3.5 mph - N/A   Overcast
11:15 AM 41.0 °F - 41.0 °F 100% 30.06 in 8.0 mi Calm Calm - N/A   Overcast
11:20 AM 41.0 °F 39.0 °F 41.0 °F 100% 30.06 in 10.0 mi SSW 3.5 mph - N/A   Overcast
11:25 AM 41.0 °F 39.0 °F 41.0 °F 100% 30.06 in 9.0 mi SW 3.5 mph - N/A   Light Drizzle
11:35 AM 41.0 °F - 41.0 °F 100% 30.06 in 6.0 mi Calm Calm - N/A   Light Drizzle
11:41 AM 41.0 °F - 41.0 °F 100% 30.06 in 5.0 mi Calm Calm - N/A   Light Drizzle
11:45 AM 41.0 °F - 41.0 °F 100% 30.06 in 5.0 mi Calm Calm - N/A   Light Drizzle
11:55 AM 41.9 °F - 41.7 °F 99% 30.06 in 7.0 mi Calm Calm - 0.00 in   Overcast
12:17 PM 42.8 °F - 42.8 °F 100% 30.05 in 10.0 mi Calm Calm - N/A   Overcast
12:19 PM 42.8 °F - 42.8 °F 100% 30.05 in 10.0 mi Calm Calm - N/A   Overcast
12:27 PM 42.8 °F - 42.8 °F 100% 30.05 in 10.0 mi Calm Calm - N/A   Overcast
12:39 PM 42.8 °F - 42.8 °F 100% 30.04 in 10.0 mi Calm Calm - N/A   Overcast
12:45 PM 42.8 °F 41.1 °F 42.8 °F 100% 30.04 in 10.0 mi ESE 3.5 mph - N/A   Overcast
12:47 PM 42.8 °F - 42.8 °F 100% 30.05 in 10.0 mi Calm Calm - N/A   Overcast
12:55 PM 43.9 °F - 43.0 °F 97% 30.04 in 10.0 mi Calm Calm - N/A   Overcast
1:12 PM 44.6 °F 41.4 °F 42.8 °F 93% 30.04 in 10.0 mi NNE 5.8 mph - N/A   Overcast
1:13 PM 44.6 °F 41.4 °F 42.8 °F 93% 30.04 in 10.0 mi NNE 5.8 mph - N/A   Overcast
1:22 PM 44.6 °F 42.2 °F 42.8 °F 93% 30.05 in 10.0 mi North 4.6 mph - N/A   Overcast
1:23 PM 44.6 °F 42.2 °F 42.8 °F 93% 30.05 in 10.0 mi North 4.6 mph - N/A   Overcast
1:25 PM 44.6 °F 41.4 °F 42.8 °F 93% 30.05 in 10.0 mi North 5.8 mph - N/A   Overcast
1:26 PM 44.6 °F 41.4 °F 42.8 °F 93% 30.04 in 10.0 mi North 5.8 mph - N/A   Overcast
1:28 PM 44.6 °F 42.2 °F 42.8 °F 93% 30.05 in 10.0 mi North 4.6 mph - N/A   Overcast
1:31 PM 44.6 °F 42.2 °F 42.8 °F 93% 30.04 in 10.0 mi North 4.6 mph - N/A   Overcast
1:36 PM 44.6 °F 42.2 °F 42.8 °F 93% 30.05 in 10.0 mi NNW 4.6 mph - N/A   Overcast
1:44 PM 44.6 °F 42.2 °F 42.8 °F 93% 30.05 in 10.0 mi North 4.6 mph - N/A   Overcast
1:55 PM 45.3 °F - 41.7 °F 87% 30.05 in 10.0 mi Calm Calm - N/A   Overcast
2:55 PM 45.7 °F 43.4 °F 40.8 °F 83% 30.06 in 10.0 mi NW 4.6 mph - N/A   Overcast
3:27 PM 44.6 °F 42.2 °F 41.0 °F 87% 30.07 in 10.0 mi WNW 4.6 mph - N/A   Overcast
3:55 PM 44.6 °F 41.4 °F 42.1 °F 91% 30.08 in 10.0 mi WNW 5.8 mph - N/A   Overcast
4:20 PM 44.6 °F 42.2 °F 42.8 °F 93% 30.08 in 10.0 mi West 4.6 mph - N/A   Overcast
4:25 PM 44.6 °F 43.1 °F 42.8 °F 93% 30.08 in 10.0 mi West 3.5 mph - N/A   Overcast
4:31 PM 44.6 °F - 42.8 °F 93% 30.07 in 10.0 mi Calm Calm - N/A   Overcast
4:45 PM 44.6 °F 42.2 °F 41.0 °F 87% 30.08 in 10.0 mi NW 4.6 mph - N/A   Overcast
4:47 PM 44.6 °F - 41.0 °F 87% 30.08 in 10.0 mi Calm Calm - N/A   Overcast
4:55 PM 44.4 °F - 40.8 °F 87% 30.08 in 10.0 mi Calm Calm - N/A   Overcast
5:28 PM 44.6 °F 43.1 °F 41.0 °F 87% 30.08 in 10.0 mi West 3.5 mph - N/A   Overcast
5:55 PM 43.9 °F - 41.7 °F 92% 30.08 in 10.0 mi Calm Calm - N/A   Overcast
6:16 PM 42.8 °F 41.1 °F 42.8 °F 100% 30.08 in 10.0 mi NW 3.5 mph - N/A   Overcast
6:18 PM 42.8 °F - 41.0 °F 93% 30.08 in 10.0 mi Calm Calm - N/A   Overcast
6:32 PM 44.6 °F - 41.0 °F 87% 30.09 in 10.0 mi Calm Calm - N/A   Overcast
6:33 PM 44.6 °F - 41.0 °F 87% 30.09 in 10.0 mi Calm Calm - N/A   Overcast
6:35 PM 44.6 °F - 41.0 °F 87% 30.09 in 10.0 mi Calm Calm - N/A   Overcast
6:40 PM 44.6 °F - 41.0 °F 87% 30.09 in 10.0 mi Calm Calm - N/A   Overcast
6:55 PM 43.3 °F - 41.9 °F 95% 30.09 in 10.0 mi Calm Calm - 0.00 in   Light Drizzle
6:59 PM 42.8 °F - 42.8 °F 100% 30.08 in 10.0 mi Calm Calm - N/A   Overcast
7:43 PM 42.8 °F - 41.0 °F 93% 30.09 in 10.0 mi Calm Calm - N/A   Overcast
7:55 PM 41.7 °F 39.8 °F 41.5 °F 99% 30.09 in 10.0 mi South 3.5 mph - 0.00 in Rain Light Rain
8:02 PM 41.0 °F 39.0 °F 41.0 °F 100% 30.08 in 8.0 mi South 3.5 mph - N/A Rain Light Rain
8:24 PM 41.0 °F 39.0 °F 41.0 °F 100% 30.08 in 10.0 mi SSE 3.5 mph - N/A   Overcast
8:29 PM 41.0 °F 38.0 °F 41.0 °F 100% 30.08 in 10.0 mi SSE 4.6 mph - N/A   Overcast
8:30 PM 41.0 °F 38.0 °F 41.0 °F 100% 30.08 in 10.0 mi SSE 4.6 mph - N/A Rain Light Rain
8:41 PM 41.0 °F 38.0 °F 41.0 °F 100% 30.08 in 10.0 mi SSE 4.6 mph - N/A Rain Light Rain
8:55 PM 41.7 °F 37.3 °F 41.5 °F 99% 30.08 in 10.0 mi SSE 6.9 mph - 0.02 in Rain Light Rain
9:02 PM 41.0 °F 38.0 °F 41.0 °F 100% 30.08 in 10.0 mi SSE 4.6 mph - N/A Rain Light Rain
9:04 PM 41.0 °F 38.0 °F 41.0 °F 100% 30.08 in 10.0 mi SSE 4.6 mph - N/A   Mostly Cloudy
9:30 PM 41.0 °F 37.1 °F 41.0 °F 100% 30.07 in 10.0 mi ESE 5.8 mph - N/A   Mostly Cloudy
9:55 PM 40.5 °F 37.3 °F 40.1 °F 99% 30.06 in 10.0 mi ESE 4.6 mph - 0.00 in   Scattered Clouds
10:31 PM 37.4 °F - 37.4 °F 100% 30.04 in 2.5 mi Calm Calm - N/A   Scattered Clouds
10:34 PM 39.2 °F - 37.4 °F 93% 30.04 in 2.0 mi Calm Calm - N/A   Scattered Clouds
10:35 PM 39.2 °F - 37.4 °F 93% 30.04 in 2.5 mi Calm Calm - N/A   Scattered Clouds
10:36 PM 39.2 °F - 39.2 °F 100% 30.04 in 3.0 mi Calm Calm - N/A   Scattered Clouds
10:55 PM 38.5 °F - 38.1 °F 99% 30.04 in 7.0 mi Calm Calm - N/A   Mostly Cloudy
10:59 PM 37.4 °F - 37.4 °F 100% 30.04 in 6.0 mi Calm Calm - N/A   Mostly Cloudy
11:01 PM 37.4 °F - 37.4 °F 100% 30.04 in 5.0 mi Calm Calm - N/A   Mostly Cloudy
11:02 PM 37.4 °F - 37.4 °F 100% 30.04 in 5.0 mi Calm Calm - N/A   Mostly Cloudy
11:05 PM 39.2 °F 35.9 °F 37.4 °F 93% 30.04 in 6.0 mi SSW 4.6 mph - N/A   Overcast
11:07 PM 39.2 °F - 39.2 °F 100% 30.04 in 7.0 mi Calm Calm - N/A   Overcast
11:45 PM 41.0 °F - 39.2 °F 93% 30.03 in 10.0 mi Calm Calm - N/A   Overcast
11:55 PM 39.9 °F - 39.7 °F 99% 30.03 in 10.0 mi Calm Calm - N/A   Overcast